{"data":{"norad_id":64347,"epoch":"2026-09-20T09:41:07.790496Z","epoch_age_seconds":142481,"freshness":"FRESH","line1":"1 64347U 25126D   26263.40356239  .00022817  00000+0  79551-3 0  9990","line2":"2 64347  70.0017 261.2987 0002850 259.8786 100.2068 15.29591579 69900","mean_motion":15.29591579,"eccentricity":0.000285,"inclination_deg":70.0017,"raan_deg":261.2987,"arg_perigee_deg":259.8786,"mean_anomaly_deg":100.2068,"bstar":0.00079551,"rev_number":6990,"period_min":94.142777704191,"perigee_km":475.07858374224,"apogee_km":478.98603024723,"semimajor_km":6855.1693069947,"source":"CELESTRAK","updated_at":"2026-09-21T09:00:35.316288Z"}}